Regional Weather Roundup
Issued by NWS Charleston, SC

Current Version | Previous Version | Text Only | Print | Product List | Glossary Off
Versions: 1 2 3 4 5 6 7 8 9 10 11 12 13 14 15 16 17 18 19 20 21 22 23 24 25 26 27 28 29 30 31 32 33 34 35 36 37 38 39 40 41 42 43 44 45 46 47 48 49 50

000
ASUS42 KCHS 251110
RWRCHS
REGIONAL WEATHER ROUNDUP
NATIONAL WEATHER SERVICE CHARLESTON SC
600 AM EST SUN JAN 25 2015

NOTE: "FAIR" INDICATES FEW OR NO CLOUDS BELOW 12,000 FEET WITH NO
SIGNIFICANT WEATHER AND/OR OBSTRUCTIONS TO VISIBILITY.

NOT ALL STATIONS ARE QUALITY CONTROLLED BY THE NATIONAL
WEATHER SERVICE. USE DATA WITH CAUTION...ESPECIALLY
DEWPOINT OBSERVATIONS.

SCZ027-030-031-034>040-042>050-251200-
...SOUTHEAST SOUTH CAROLINA...

CITY           SKY/WX    TMP DP  RH WIND       PRES   REMARKS
N CHARLESTON   CLEAR     36  30  79 NW3       29.96S
WATERFRONT PRK   N/A     43 N/A N/A NW6G12      N/A
MOUNT PLEASANT LGT RAIN N/A N/A N/A CALM      29.95S
PINOPOLIS      NOT AVBL
MONCKS CORNER  FAIR      36  32  87 CALM      29.96S
SUMMERVILLE    FAIR      34  34 100 CALM      29.97S
BEAUFORT MCAS  CLEAR     40  30  67 W7        29.99R WCI  35
BEAUFORT ARPT  FAIR      39  34  81 W12       29.99R WCI  32
HILTON HEAD IS NOT AVBL
WALTERBORO     SUNNY     32 N/A N/A CALM      29.97R
ALLENDALE      FAIR      36  32  87 CALM      29.96S

...SOUTHERN MIDLANDS AND PEE DEE...

CITY           SKY/WX    TMP DP  RH WIND       PRES   REMARKS
GEORGETOWN     NOT AVBL
KINGSTREE      NOT AVBL
ORANGEBURG     CLEAR     31  27  85 CALM      29.95S
BARNWELL         N/A     32  32 100 CALM      29.96R
AIKEN          FAIR      36  30  80 W3        29.97S
MANNING        NOT AVBL
COLUMBIA       CLEAR     30  27  88 SW3       29.95R
SUMTER         CLEAR     35  28  74 VRB1      29.93R
FLORENCE       CLEAR     33  28  81 SW3       29.94R
MYRTLE BEACH   CLEAR     37  30  75 W8        29.97R WCI  31
N MYRTLE BEACH CLEAR     38  32  79 W5        29.95R WCI  34

$$

GAZ063-065-086>088-099>101-113>116-118-119-134>141-150-251200-
...SOUTHEAST GEORGIA...

CITY           SKY/WX    TMP DP  RH WIND       PRES   REMARKS
SAVANNAH ARPT  CLEAR     36  30  79 W6        30.01R WCI  31
HUNTER AAF     CLEAR     35  31  85 W5        29.99R WCI  31
FORT STEWART   CLEAR     36  32  84 W6        30.01R WCI  31
STATESBORO     CLEAR     37  32  82 CALM      30.00R
SYLVANIA       SUNNY     36  32  85 CALM      30.00R
CLAXTON        FAIR      34  34 100 CALM      30.02R

...CSRA...CENTRAL AND FAR SOUTHEAST GEORGIA...

CITY           SKY/WX    TMP DP  RH WIND       PRES   REMARKS
THOMSON        CLEAR     36  32  85 CALM      30.00R
AUGUSTA-BUSH   CLEAR     32  28  85 CALM      29.97R
AUGUSTA-DANIEL CLEAR     40  29  64 NW9       29.95S WCI  34
SWAINSBORO     FAIR      34  28  80 CALM      30.01R
VIDALIA        CLEAR     34  32  93 SW6       30.03R WCI  29
EASTMAN        FAIR      36  36 100 CALM      30.07R
HAZLEHURST     FAIR      38  35  91 W5        30.03R WCI  34
ALMA           CLEAR     34  32  92 SW3       30.04R
WAYCROSS       CLEAR     39  36  90 W5        30.05R WCI  36
JESUP          FAIR      37  36  93 W5        30.04R WCI  34
BAXLEY         FAIR      37  34  87 CALM      30.04R
BRUNSWICK      CLEAR     37  34  87 W5        30.04R WCI  34
SAINT SIMONS   CLEAR     40  34  79 W8        30.03R WCI  34

$$

SCZ027-028-034-036>038-045-046-048>050-GAZ119-141-251200-
...LAKE AND SUPPLEMENTAL COASTAL OBSERVATIONS...

STATION/POSITION TIME  TEMP    WIND        PRES    WAVE   SWELL
                       AIR SEA DIR/SP/G            HT/PER HT/PER/DIR
                 (UTC) (F)     (DEG/KT/KT) (MB)    (FT/S) (FT/S/D)
UPR LAKE MARION  NOT AVBL
WINYAH BAY       1000   40     290/  6     1012.0S
LAKE MURRAY      1000   37      CALM  /  2 1013.2R
ACE BASIN NERRS  NOT AVBL
FORT PULASKI     1100   43 53  270/ 12/ 15 1016.2F
SAPELO ISLAND    1000   42     280/  7     1016.0S

$$

ANZ835-935-AMZ111-154-330-350-352-354-370-450-454-472-251200-
...C-MAN AND BUOY OBSERVATIONS...

STATION/POSITION TIME  TEMP    WIND        PRES    WAVE   SWELL
                       AIR SEA DIR/SP/G            HT/PER HT/PER/DIR
                 (UTC) (F)     (DEG/KT/KT) (MB)    (FT/S) (FT/S/D)
BUOY 41004       1100   51 69  320/ 14/ 17 1014.3R   7/ 7   3/ 7
BUOY 41008       1100   48 55  310/ 17/ 19 1016.1R   3/ 4
FOLLY BEACH CMAN 1100   39     290/  3/  6 1015.3R
CAPERS NEARSHORE 1000   45     310/ 16/ 19   N/A
FRIPP NEARSHORE  1000   46     310/ 14/ 17   N/A


STATION/POSITION TIME  TEMP    WIND        PRES    WAVE   SWELL
                       AIR SEA DIR/SP/G            HT/PER HT/PER/DIR
                 (UTC) (F)     (DEG/KT/KT) (MB)    (FT/S) (FT/S/D)
5E ST. MARYS GA  1100      58                N/A     2/ 3
FRYING PAN BUOY  1100   50 66  310/ 14/ 17 1014.0R   6/ 9   5/180/ 9
BUOY 41025       1100   48 70  300/ 23/ 29 1011.2R   7/11   3/130/11
CAPE LOOKOUT NC  1100   44     300/ 11/ 13 1012.9R
BUOY 41002       1049   64 72  290/ 16/ 21 1012.6R  11/10  10/240/10
BUOY 41010       1100   64 77  310/ 10/ 14 1015.3R   7/ 8   7/320/ 8
ST AUGUSTINE FL  1100   42     300/  8/ 11 1018.0R


$$



USA.gov is the U.S. government's official web portal to all federal, state and local government web resources and services.